This demonstration page uses our WeatherBlox Daily Observations layout. Learn more.

Left ArrowRight Arrow

40.97296, -117.73568

Hourly Observations for January 8, 2022

Temp ( °F °C ) Dew Point ( °F °C ) Humidity (%) Winds ( mph kmh ) Pressure ( in mb ) Visibility ( mi km ) Precip ( " mm )
12:56 am 00:56 Clear 34 1.1 28 -2.2 79 79 Calm 29.92 1013 10 16 0.00 0.00
1:56 am 01:56 Clear 34 1.1 28 -2.2 79 79 WSW 3 6 29.93 1014 10 16 0.00 0.00
2:56 am 02:56 Clear 34 1.1 27 -2.8 76 76 Calm 29.97 1015 10 16 0.00 0.00
3:56 am 03:56 Cloudy 34 1.1 28 -2.2 79 79 WNW 6 9 29.99 1016 10 16 0.00 0.00
4:56 am 04:56 Mostly Clear 31 -0.6 27 -2.8 85 85 Calm 30.01 1016 10 16 0.00 0.00
5:56 am 05:56 Cloudy 32 0 27 -2.8 82 82 Calm 30.05 1018 10 16 0.00 0.00
6:56 am 06:56 Clear 30 -1.1 26 -3.3 85 85 Calm 30.09 1019 10 16 0.00 0.00
7:56 am 07:56 Sunny 31 -0.6 26 -3.3 82 82 NE 3 6 30.13 1020 10 16 0.00 0.00
8:56 am 08:56 Sunny 37 2.8 27 -2.8 67 67 Calm 30.15 1021 10 16 0.00 0.00
9:56 am 09:56 Sunny 39 3.9 27 -2.8 62 62 W 5 7 30.17 1022 10 16 0.00 0.00
10:56 am 10:56 Sunny 42 5.6 26 -3.3 53 53 W 5 7 30.19 1022 10 16 0.00 0.00
11:56 am 11:56 Sunny 43 6.1 24 -4.4 47 47 WNW 6 9 30.19 1022 10 16 0.00 0.00
12:56 pm 12:56 Sunny 43 6.1 25 -3.9 49 49 Calm 30.18 1022 10 16 0.00 0.00
1:56 pm 13:56 Sunny 44 6.7 24 -4.4 45 45 NNW 6 9 30.18 1022 10 16 0.00 0.00
2:56 pm 14:56 Sunny 45 7.2 23 -5 42 42 Calm 30.20 1023 10 16 0.00 0.00
3:56 pm 15:56 Sunny 44 6.7 23 -5 43 43 Calm 30.22 1023 10 16 0.00 0.00
4:56 pm 16:56 Clear 38 3.3 24 -4.4 57 57 N 5 7 30.27 1025 10 16 0.00 0.00
5:56 pm 17:56 Clear 32 0 24 -4.4 73 73 E 3 6 30.31 1027 10 16 0.00 0.00
6:56 pm 18:56 Clear 30 -1.1 25 -3.9 82 82 NW 3 6 30.35 1028 10 16 0.00 0.00
7:56 pm 19:56 Clear 33 0.6 25 -3.9 72 72 ENE 8 13 30.35 1028 10 16 0.00 0.00
8:56 pm 20:56 Clear 32 0 25 -3.9 75 75 E 8 13 30.35 1028 10 16 0.00 0.00
9:56 pm 21:56 Clear 32 0 24 -4.4 73 73 ENE 10 17 30.35 1028 10 16 0.00 0.00
10:56 pm 22:56 Clear 31 -0.6 24 -4.4 76 76 ENE 10 17 30.36 1028 10 16 0.00 0.00
11:56 pm 23:56 Clear 31 -0.6 23 -5 72 72 ENE 13 20 30.37 1029 10 16 0.00 0.00

Powered by AerisWeather